This is the latest recevied weather packets stored in our database for station/object KO4ZGL-13. If no packets are shown the sender has not sent any weather packets the latest 10 day(s).
| Time | Temp. | Humidity | Pressure | Rain* | Wind** | Luminosity | Snow |
|---|---|---|---|---|---|---|---|
| 1787489006 | 24.44° C | 99% | 1015.3 hPa | 0 mm | - | 60 W/m² | - |
| 1787488701 | 24.44° C | 99% | 1015.3 hPa | 0 mm | - | 55 W/m² | - |
| 1787488397 | 24.44° C | 99% | 1015.1 hPa | 0 mm | - | 63 W/m² | - |
| 1787488095 | 23.89° C | 99% | 1015.1 hPa | 0 mm | - | 68 W/m² | - |
| 1787487790 | 23.89° C | 99% | 1015.2 hPa | 0 mm | - | 71 W/m² | - |
| 1787487487 | 23.89° C | 99% | 1015.2 hPa | 0 mm | - | 69 W/m² | - |
| 1787487183 | 23.89° C | 99% | 1015 hPa | 0 mm | - | 64 W/m² | - |
| 1787486882 | 23.89° C | 99% | 1015.1 hPa | 0 mm | - | 63 W/m² | - |
| 1787486577 | 23.33° C | 99% | 1015 hPa | 0 mm | - | 58 W/m² | - |
| 1787486276 | 23.33° C | 99% | 1015.1 hPa | 0 mm | - | 55 W/m² | - |
| 1787485971 | 23.33° C | 99% | 1015.1 hPa | 0 mm | - | 52 W/m² | - |
| 1787485668 | 23.33° C | 99% | 1015.1 hPa | 0 mm | - | 48 W/m² | - |
| 1787485357 | 23.33° C | 99% | 1015 hPa | 0 mm | - | 45 W/m² | - |
| 1787485052 | 23.33° C | 99% | 1015 hPa | 0 mm | - | 42 W/m² | - |
| 1787484750 | 22.78° C | 99% | 1015 hPa | 0 mm | - | 38 W/m² | - |
| 1787484445 | 22.78° C | 99% | 1014.9 hPa | 0 mm | - | 33 W/m² | - |
| 1787484141 | 22.78° C | 99% | 1014.9 hPa | 0 mm | - | 27 W/m² | - |
| 1787483836 | 22.78° C | 99% | 1014.5 hPa | 0 mm | - | 22 W/m² | - |
| 1787483534 | 22.78° C | 99% | 1014.8 hPa | 0 mm | - | 16 W/m² | - |
| 1787483229 | 22.78° C | 99% | 1014.6 hPa | 0 mm | - | 11 W/m² | - |
| 1787482925 | 22.78° C | 99% | 1014.7 hPa | 0 mm | - | 6 W/m² | - |
| 1787482621 | 22.78° C | 99% | 1014.4 hPa | 0 mm | - | 3 W/m² | - |
| 1787482316 | 22.78° C | 99% | 1014.2 hPa | 0 mm | - | 1 W/m² | - |
| 1787482012 | 22.22° C | 99% | 1014.2 hPa | 0 mm | - | 0 W/m² | - |
| 1787481707 | 22.78° C | 99% | 1014 hPa | 0 mm | - | 0 W/m² | - |
* Rain latest hour (hover to see other rain measurements)
** Current wind speed in m/s (hover to see current wind gust speed)